Hagerstown, MD

5:06 AM EST on November 22, 2019 (GMT -0500)
Hagerstown Regional-Henson

Weather History for KHGR - September, 2019

Change the Weather History Date:

Saturday, September 28, 2019

  Actual Average Record
Temperature  
Mean Temperature 77 °F 61 °F  
Max Temperature 89 °F 71 °F 89 °F (2019)
Min Temperature 65 °F 51 °F 44 °F (2001)
Degree Days  
Heating Degree Days 0 5  
Month to date heating degree days 1 56  
Since 1 July heating degree days 1 61  
Cooling Degree Days 12 1  
Month to date cooling degree days 216 89  
Year to date cooling degree days 1425 957  
Growing Degree Days 27 (Base 50)    
Moisture  
Dew Point 63 °F    
Average Humidity 63    
Maximum Humidity 79    
Minimum Humidity 46    
Precipitation  
Precipitation 0.00 in 0.14 in 2.58 in (2004)
Month to date precipitation 0.40 3.39  
Year to date precipitation 28.77 30.02  
Sea Level Pressure  
Sea Level Pressure 30.09 in    
Wind  
Wind Speed 8 mph (South)    
Max Wind Speed 17 mph    
Max Gust Speed 23 mph    
Visibility 10 miles    
Events      
T = Trace of Precipitation, MM = Missing Value Source: NWS Daily Summary

Daily Weather History Graph

Daily Weather History Graph

Search for Another Location

Airport or City:

Astronomy

Sep. 28, 2019 Rise Set
Actual Time 7:04 AM EDT 6:58 PM EDT
Civil Twilight 6:37 AM EDT 7:25 PM EDT
Nautical Twilight 6:05 AM EDT 7:56 PM EDT
Astronomical Twilight 5:34 AM EDT 8:28 PM EDT
Moon 6:38 AM EDT (9/28) 7:23 PM EDT (9/28)
Length of Visible Light 12h 48m
Length of Day
11h 54m
Waning Crescent, 0% of the Moon is Illuminated
Sep 28
Waning Crescent
Sep 28
New
Oct 5
First Quarter
Oct 13
Full
Oct 21
Last Quarter

Hourly Weather History & Observations

Time (EDT) Temp. Heat Index Dew Point Humidity Pressure Visibility Wind Dir Wind Speed Gust Speed Precip Events Conditions
12:53 AM 69.1 °F - 57.0 °F 65% 30.09 in 10.0 mi SSE 8.1 mph - N/A   Clear
1:53 AM 68.0 °F - 55.9 °F 65% 30.10 in 10.0 mi SSE 11.5 mph - N/A   Clear
2:53 AM 66.9 °F - 55.9 °F 68% 30.08 in 10.0 mi SSE 12.7 mph - N/A   Clear
3:53 AM 66.9 °F - 55.9 °F 68% 30.09 in 10.0 mi South 8.1 mph - N/A   Clear
4:53 AM 66.9 °F - 57.0 °F 70% 30.09 in 10.0 mi SSE 9.2 mph - N/A   Clear
5:53 AM 66.0 °F - 57.0 °F 73% 30.10 in 10.0 mi South 9.2 mph - N/A   Clear
6:53 AM 66.9 °F - 59.0 °F 76% 30.10 in 10.0 mi South 9.2 mph - N/A   Clear
7:53 AM 68.0 °F - 60.1 °F 76% 30.11 in 10.0 mi South 8.1 mph - N/A   Mostly Cloudy
8:53 AM 69.1 °F - 60.1 °F 73% 30.12 in 10.0 mi South 8.1 mph - N/A   Clear
9:53 AM 73.0 °F - 62.1 °F 68% 30.12 in 10.0 mi South 8.1 mph - N/A   Clear
10:53 AM 75.9 °F - 62.1 °F 62% 30.12 in 10.0 mi Variable 5.8 mph - N/A   Clear
11:53 AM 79.0 °F - 63.0 °F 58% 30.11 in 10.0 mi Variable 6.9 mph - N/A   Clear
12:53 PM 82.0 °F 83.4 °F 64.0 °F 54% 30.09 in 10.0 mi South 10.4 mph - N/A   Clear
1:53 PM 84.9 °F 86.1 °F 64.0 °F 49% 30.07 in 10.0 mi Variable 3.5 mph 23.0 mph N/A   Clear
2:53 PM 87.1 °F 88.3 °F 64.0 °F 46% 30.06 in 10.0 mi SSW 9.2 mph - N/A   Clear
3:53 PM 88.0 °F 90.3 °F 66.0 °F 48% 30.03 in 10.0 mi South 11.5 mph - N/A   Clear
4:53 PM 86.0 °F 88.2 °F 66.0 °F 51% 30.04 in 10.0 mi South 12.7 mph - N/A   Clear
5:53 PM 84.9 °F 87.6 °F 66.9 °F 55% 30.06 in 10.0 mi South 12.7 mph - N/A   Partly Cloudy
6:53 PM 82.9 °F 85.4 °F 66.9 °F 58% 30.07 in 10.0 mi South 9.2 mph - N/A   Partly Cloudy
7:53 PM 80.1 °F 82.7 °F 68.0 °F 67% 30.07 in 10.0 mi South 8.1 mph - N/A   Clear
8:53 PM 79.0 °F - 68.0 °F 69% 30.10 in 10.0 mi South 5.8 mph - N/A   Clear
9:53 PM 77.0 °F - 68.0 °F 74% 30.13 in 10.0 mi Calm Calm - N/A   Clear
10:53 PM 77.0 °F - 68.0 °F 74% 30.14 in 10.0 mi Calm Calm - N/A   Clear
11:53 PM 73.9 °F - 66.0 °F 76% 30.14 in 10.0 mi WNW 4.6 mph - N/A   Clear